Theta_e
317 317 317 317 317 317 317 317 317 317 317 317 318 317 317 317 317 317 317 317 317 317 317 317 316 317 317 318 318 318 316 317 315 313 313 315 320 323 328 322 324 326 326 316 314 313 310 311 310 312 311 310 309 307 310 309 310 308 301 300 297 300 297 303 302 304 304 303 305 305 306 306 311 319 322 328 324 324 325 326 327 330 331 334 334 337 338 338
316 317 317 317 317 317 317 317 317 317 317 317 317 317 317 317 317 317 317 317 317 317 317 317 317 317 317 317 317 317 317 315 315 316 315 322 327 325 331 328 325 328 324 313 311 311 309 309 310 310 309 307 310 307 309 306 310 304 302 301 298 300 302 306 306 305 304 304 305 305 306 306 311 317 320 317 317 319 319 322 325 325 330 332 334 334 335 336
316 316 316 317 317 317 317 317 317 317 317 317 317 317 317 317 317 317 317 317 317 317 318 317 317 317 317 317 318 316 315 317 316 308 314 327 327 326 330 327 326 327 317 312 313 312 310 310 310 309 309 307 307 305 307 306 307 306 303 298 300 304 304 306 306 305 306 306 304 304 305 305 314 314 319 313 311 314 312 315 318 318 326 328 331 334 334 335
315 316 316 316 316 316 316 317 317 317 317 317 317 317 317 317 317 316 316 317 317 317 318 317 317 317 317 317 317 318 318 314 306 312 322 331 328 327 330 326 330 326 316 314 313 312 313 312 310 310 307 305 305 306 303 306 303 306 302 300 302 304 303 306 306 306 306 306 304 304 305 304 311 315 317 311 309 310 311 314 314 313 321 329 331 334 336 337
315 315 315 316 316 316 316 316 316 317 317 317 317 317 317 317 316 317 316 317 317 318 317 317 317 317 318 318 317 317 316 310 305 317 329 333 329 328 330 331 328 316 313 313 313 312 311 309 308 307 306 303 304 304 303 306 307 305 302 304 305 305 303 306 306 306 305 305 304 304 303 304 313 313 313 313 307 307 311 313 315 315 323 330 330 332 335 337
315 315 315 316 316 316 316 316 316 316 316 316 316 317 316 316 316 316 317 317 317 317 318 317 317 317 317 317 318 318 314 296 309 316 340 335 331 330 331 330 325 315 313 310 309 309 308 307 306 303 303 303 301 300 304 305 306 299 303 304 305 305 303 306 306 306 305 304 303 303 305 307 307 309 311 312 311 311 322 321 322 325 329 332 332 332 333 335
315 315 315 315 316 316 316 316 316 316 316 316 316 316 316 316 316 316 317 317 317 317 317 317 317 317 318 315 319 314 309 307 313 322 339 338 331 332 333 330 325 313 312 309 308 307 306 305 305 302 302 302 302 302 304 303 305 303 302 304 304 305 304 306 306 305 304 303 303 305 306 305 306 304 309 309 312 317 320 324 325 331 333 331 330 333 331 334
315 315 315 315 315 316 316 316 316 316 316 316 316 316 316 316 316 317 317 317 317 317 317 317 317 317 316 318 316 312 307 305 313 329 336 335 329 329 327 316 313 312 311 309 308 306 307 304 303 304 302 301 302 302 304 303 304 301 301 303 304 305 305 306 306 305 305 304 306 305 303 304 307 306 311 308 312 316 322 325 326 328 329 329 329 332 334 335
315 315 315 315 315 315 315 316 316 316 316 316 316 316 316 316 316 316 316 317 317 317 317 316 318 317 314 315 312 307 303 313 319 325 333 327 321 324 318 312 313 310 310 310 309 308 308 305 305 305 301 301 304 302 303 302 300 303 303 304 304 304 305 305 305 305 304 305 305 303 303 305 306 313 307 309 312 320 324 323 325 326 326 327 328 332 333 335
314 315 315 315 315 315 315 315 316 316 316 316 316 316 316 316 315 316 316 317 317 317 317 317 317 317 317 317 311 303 307 318 325 324 328 326 322 319 315 315 313 310 308 308 308 308 307 306 306 307 306 304 304 302 304 302 301 303 303 303 303 303 304 305 303 304 304 304 304 302 302 303 307 306 303 310 315 322 319 321 324 323 322 325 327 330 333 333
314 315 315 315 315 315 315 315 316 316 316 316 316 316 315 315 315 315 316 317 317 317 316 318 319 317 317 313 306 301 314 316 324 323 322 322 318 316 316 315 314 311 309 308 307 309 309 309 308 308 306 303 303 302 302 302 304 303 302 302 303 303 304 304 304 303 304 302 304 304 303 308 307 306 305 310 319 319 316 319 322 321 321 324 326 329 330 332
314 314 315 315 315 315 315 315 316 316 316 316 316 315 315 315 315 315 316 317 317 317 318 318 316 319 318 313 307 306 316 317 322 321 318 317 316 314 316 316 314 312 309 306 308 309 310 310 309 306 301 305 300 302 302 304 303 303 302 299 301 303 302 304 302 303 304 302 304 305 305 303 305 302 307 314 318 317 317 317 320 319 320 323 326 328 328 330
314 314 315 315 315 315 315 315 316 316 316 316 315 315 315 315 315 315 316 317 318 320 318 318 318 320 315 306 309 315 318 320 319 317 316 316 316 316 315 314 313 313 311 309 309 310 310 310 309 305 306 305 303 299 303 305 303 303 302 300 299 300 300 302 303 303 303 303 304 306 295 299 302 305 309 317 315 317 315 315 317 318 320 321 325 326 328 331
314 314 315 315 315 315 315 316 316 316 316 316 315 315 315 315 315 315 316 316 318 318 318 317 319 320 316 307 313 316 318 320 317 314 314 314 313 312 312 313 312 311 310 309 309 311 310 311 309 307 308 304 302 306 303 303 303 299 301 301 298 297 297 301 302 302 301 302 305 306 296 300 303 305 309 317 315 314 311 313 314 315 318 320 324 325 327 329
314 314 314 315 314 315 315 316 316 316 315 315 314 314 314 314 315 317 317 318 317 318 317 317 321 317 310 309 318 322 321 317 312 311 313 311 310 308 309 310 309 309 310 309 310 310 310 309 308 305 303 306 306 302 300 301 301 301 297 295 298 296 298 300 303 301 300 301 305 302 297 299 303 305 310 315 315 313 311 311 313 314 317 321 325 325 328 329
314 314 314 314 314 314 315 315 315 315 315 313 313 313 313 313 315 318 319 320 318 317 320 322 320 314 309 305 313 323 316 312 311 312 313 313 311 309 310 309 310 310 309 309 311 310 310 309 305 305 304 304 302 301 299 298 299 300 297 296 296 297 298 298 300 302 302 301 302 301 297 301 301 304 306 312 313 313 311 311 313 314 316 321 323 324 327 329
313 313 314 314 314 314 315 315 315 315 313 312 313 312 313 316 317 318 319 318 320 321 321 316 317 315 305 312 319 311 310 314 315 312 311 313 312 311 310 309 309 309 309 309 309 309 308 306 307 304 305 303 303 301 296 295 296 297 299 296 297 295 297 296 299 302 302 301 299 301 298 300 302 304 307 308 310 311 311 312 313 315 317 321 322 324 326 328
313 313 314 314 314 314 315 315 315 314 311 312 314 316 318 317 317 317 316 320 323 322 321 318 316 315 307 314 305 308 315 315 314 312 312 313 312 311 311 309 310 309 309 307 308 305 307 304 307 302 304 303 303 300 295 292 295 295 297 296 296 297 297 296 296 299 301 301 299 300 299 300 302 304 306 310 310 310 310 311 313 315 318 321 321 322 324 325
313 313 313 314 314 314 315 315 315 313 310 311 313 314 316 316 321 323 321 319 318 315 310 309 311 302 297 307 313 314 315 316 316 313 311 311 312 313 312 312 310 308 304 305 304 306 307 305 306 303 300 301 301 300 298 298 297 296 296 296 296 295 296 296 299 301 301 299 299 299 298 300 302 303 305 313 314 310 310 312 312 315 318 321 320 321 322 323
313 313 314 314 314 314 314 315 314 312 310 316 322 322 322 322 318 316 319 315 310 309 309 310 312 311 311 311 311 316 317 316 312 313 313 312 311 310 310 310 308 309 305 302 303 305 307 302 300 299 300 301 301 301 301 301 299 298 297 296 296 295 296 298 299 301 303 299 299 300 300 300 301 303 304 308 316 313 312 312 313 315 316 319 319 321 323 326
313 313 314 314 314 314 314 313 313 312 306 317 323 321 312 312 308 304 310 311 313 313 312 311 311 310 309 311 313 314 310 310 313 311 312 315 313 309 307 308 306 303 303 303 303 307 306 301 300 301 302 302 301 301 301 300 298 297 296 296 295 296 295 298 299 302 303 299 298 300 299 300 301 303 305 307 312 313 313 314 315 315 316 318 320 321 324 327
313 313 313 314 314 314 313 313 312 310 308 319 323 316 317 318 319 318 316 306 311 313 313 312 312 311 313 313 314 314 313 308 309 311 313 313 310 306 306 306 303 301 304 304 304 303 302 300 301 303 304 302 301 300 300 299 297 297 296 296 295 296 298 300 300 301 302 300 299 300 299 300 302 303 305 305 307 313 317 318 318 317 317 319 320 323 325 326
312 313 313 313 314 313 312 311 312 308 324 325 320 318 317 323 326 325 319 313 308 313 312 312 310 311 311 314 315 315 308 306 305 309 310 312 308 307 306 305 303 302 303 303 300 300 298 301 303 305 304 301 301 301 299 299 299 298 297 295 294 298 295 294 299 301 301 300 299 300 299 300 303 305 305 306 305 309 316 317 319 322 320 319 320 322 324 324
312 312 313 313 313 313 311 310 307 321 326 322 320 319 323 326 326 322 315 307 305 309 312 312 311 312 310 309 313 312 308 307 309 307 314 312 306 308 306 304 302 302 301 301 301 300 299 303 306 305 304 303 301 302 301 300 299 299 298 297 297 297 297 297 297 300 301 302 301 300 298 298 301 301 302 308 308 309 312 314 316 318 319 321 323 323 325 324
312 312 312 313 313 311 311 308 321 322 322 324 320 323 325 327 328 322 316 309 309 306 315 313 314 312 313 317 317 310 311 311 311 313 316 313 308 307 305 307 305 301 301 301 301 302 301 305 306 304 303 303 302 301 301 300 297 299 299 299 298 298 297 298 299 298 297 296 300 298 292 293 299 300 301 304 306 309 314 315 315 318 320 319 320 322 324 325
312 312 312 312 312 310 308 321 321 324 321 317 320 323 326 327 326 324 315 305 297 303 312 303 315 307 317 311 313 311 311 305 312 315 317 314 314 307 307 305 306 300 301 301 301 302 302 306 305 303 303 302 301 300 302 302 298 297 297 302 301 299 298 298 298 298 293 291 298 300 292 289 298 298 301 303 304 306 310 310 311 313 314 316 319 321 322 323
312 311 311 311 311 309 323 318 320 322 318 316 323 326 326 327 329 322 313 300 293 303 303 310 312 309 316 312 312 310 299 302 314 316 314 316 308 313 304 304 305 305 304 304 301 301 304 304 304 304 303 301 300 300 302 302 298 295 302 304 302 300 298 298 298 298 296 299 300 299 298 292 291 297 301 302 304 306 308 310 311 313 315 315 316 319 322 322
311 311 311 311 311 310 325 325 320 315 316 322 324 326 327 328 327 324 308 288 287 308 301 308 310 318 315 314 315 308 307 311 305 310 315 315 314 311 308 303 303 303 305 304 295 302 304 301 302 302 302 301 300 301 302 303 300 301 303 304 302 301 299 299 298 297 297 297 293 296 299 293 292 297 303 305 302 304 307 309 310 312 314 317 319 318 317 322
311 311 311 311 310 308 317 328 319 317 321 324 324 326 328 329 323 315 300 287 301 304 315 305 319 313 311 313 310 310 309 311 304 309 315 316 314 310 305 305 306 305 306 305 300 301 304 304 303 303 302 299 301 304 303 303 299 303 304 305 304 302 301 300 298 296 296 293 289 294 297 290 290 298 302 304 302 303 305 307 309 311 312 314 316 319 319 317
310 310 310 310 313 321 327 325 321 322 325 323 326 327 327 325 315 302 292 284 305 298 307 308 309 305 309 305 305 308 306 308 309 311 312 309 311 312 308 311 306 305 303 305 304 303 304 309 308 303 300 302 302 304 304 303 303 305 304 300 302 301 301 302 299 298 295 287 290 294 296 294 288 296 300 300 299 304 306 307 309 311 312 313 315 318 320 318
309 309 310 309 326 321 321 320 320 324 323 325 326 324 324 315 303 294 286 296 304 304 309 306 304 309 304 303 302 306 306 307 307 309 306 309 308 309 308 306 308 304 303 302 302 303 304 304 303 304 306 305 305 301 306 305 304 303 300 299 298 296 297 298 298 298 289 287 292 296 294 296 287 294 300 303 305 306 306 305 307 308 310 311 313 314 318 320
309 308 308 315 321 320 321 318 322 322 324 327 326 323 315 299 303 291 290 305 295 302 302 302 305 305 304 305 303 303 303 306 307 306 304 304 304 303 303 299 301 295 294 296 296 301 300 300 303 304 307 304 302 299 301 302 303 301 300 299 291 288 288 285 287 284 286 286 293 296 295 292 292 297 302 304 305 306 308 307 308 308 309 311 312 313 314 317
307 307 306 312 315 326 324 324 324 326 328 325 324 317 306 295 287 298 299 301 296 305 303 307 303 304 303 303 301 304 306 302 306 305 306 305 304 303 304 303 303 300 292 298 297 295 296 300 301 300 303 305 303 295 295 295 299 300 299 296 291 285 283 280 284 287 289 293 295 294 296 291 297 298 303 304 306 308 308 310 311 310 310 311 311 313 313 314
306 306 323 320 322 324 325 330 329 328 327 323 319 310 303 290 291 301 300 301 301 305 304 304 304 304 305 301 302 305 301 303 304 303 305 302 302 301 303 304 304 301 300 299 294 294 288 291 297 298 296 304 302 300 299 298 298 300 300 298 294 289 286 281 283 282 285 290 293 297 291 289 290 292 305 306 308 308 310 310 311 312 312 313 313 313 313 313
304 314 330 324 323 326 328 328 331 331 325 319 310 305 292 292 299 298 299 301 303 304 302 304 303 301 302 302 303 303 302 300 304 303 302 301 299 300 300 301 304 303 301 295 297 297 292 293 299 303 301 303 300 303 304 301 298 302 301 300 295 291 296 287 290 289 291 290 291 292 291 296 294 302 304 306 306 307 308 308 309 309 311 313 312 312 312 313
310 330 329 327 323 325 327 327 330 325 322 313 304 295 294 300 297 303 301 305 304 303 302 302 302 300 299 300 302 301 303 301 302 302 301 301 301 300 301 302 302 303 299 294 298 291 293 291 299 301 303 302 302 304 303 304 291 298 299 293 296 301 298 293 291 295 294 290 287 294 295 297 301 302 303 304 303 303 305 306 307 308 309 311 310 311 312 313
328 328 322 321 320 323 327 327 322 322 320 310 300 294 302 302 305 304 305 304 305 304 303 297 299 298 298 297 299 299 301 302 301 300 298 302 299 300 300 301 304 303 303 300 296 300 290 292 299 297 297 302 305 304 304 304 304 301 295 297 302 304 302 295 287 289 287 284 286 293 290 289 291 286 300 300 300 301 302 304 306 308 309 308 309 311 312 313
326 322 322 318 319 324 327 327 325 323 315 307 297 299 304 302 305 306 307 306 307 306 302 299 300 301 297 297 297 297 300 298 300 300 298 300 296 302 300 300 303 304 304 305 298 298 299 291 296 298 298 301 304 303 301 304 305 300 298 304 296 288 288 296 290 283 284 283 285 291 292 292 292 291 296 296 298 300 301 304 305 305 306 308 309 310 312 313
327 320 316 318 322 324 325 323 326 317 310 302 300 296 303 303 306 307 308 307 307 305 300 300 300 300 301 297 298 299 298 297 299 299 296 299 296 301 299 300 300 304 305 304 300 300 302 291 293 298 298 300 301 300 291 298 303 304 306 302 303 300 294 290 291 289 292 285 285 286 291 286 293 293 296 296 298 300 301 303 304 305 306 307 308 309 310 312
319 315 311 323 323 325 326 324 318 313 306 297 302 302 306 303 306 308 309 308 305 305 302 301 301 299 299 299 298 298 299 298 299 299 299 301 298 301 300 302 299 301 303 304 301 303 296 299 288 296 300 299 293 298 295 297 294 298 299 297 298 299 300 298 298 293 289 286 286 285 283 287 292 297 298 298 299 300 302 301 303 305 306 308 308 309 310 311
321 316 313 325 323 325 326 320 310 305 303 306 305 303 304 303 306 306 308 309 307 309 306 303 302 299 300 300 299 299 298 299 298 298 298 299 298 294 302 300 301 300 302 302 301 301 295 297 289 294 295 294 295 300 300 299 299 298 297 294 296 294 293 288 286 296 295 291 286 285 283 288 296 300 301 300 301 301 302 302 303 304 305 307 308 310 311 311
316 308 311 324 327 328 319 306 306 310 306 302 301 305 302 309 305 304 306 307 307 304 308 304 303 302 301 299 299 297 298 298 298 298 298 298 300 299 302 302 301 302 301 296 299 303 303 299 296 290 293 294 298 301 303 304 302 299 299 295 297 295 297 290 285 288 294 294 294 293 288 287 299 301 302 301 301 303 303 304 303 305 306 307 308 309 311 312
312 309 320 323 328 323 311 304 307 301 304 304 307 305 306 305 304 304 304 305 304 306 304 303 302 301 300 302 298 299 298 298 297 298 297 299 298 299 301 302 302 302 305 301 303 303 303 296 293 294 296 298 300 302 303 304 302 298 298 299 297 294 295 293 293 295 291 291 290 290 285 289 300 303 302 303 303 304 305 305 305 305 307 307 308 309 310 310
315 314 316 327 331 324 310 296 298 300 304 305 306 304 306 305 305 303 302 304 306 303 304 302 302 303 301 303 301 298 299 293 298 298 298 297 298 301 302 304 304 302 304 300 300 304 295 297 294 289 289 292 295 297 298 301 300 296 294 297 298 298 297 296 297 297 290 292 292 287 282 288 299 302 302 302 303 303 303 305 306 305 306 307 308 309 310 311
314 316 316 317 323 320 308 307 304 301 303 304 304 303 304 304 303 305 304 303 307 305 304 302 303 304 302 303 299 300 300 298 297 299 297 296 299 302 303 305 306 304 306 308 307 307 297 295 294 287 283 281 281 283 286 289 292 295 296 296 297 297 295 294 289 292 288 291 292 288 288 294 298 301 300 301 302 302 304 304 306 306 306 306 307 308 309 309
310 299 310 312 317 314 311 314 311 306 304 304 298 303 305 301 303 304 305 303 306 306 305 304 303 303 301 300 299 297 298 300 299 296 297 297 299 301 303 305 306 306 307 306 305 306 296 299 297 294 290 288 290 292 297 297 296 291 293 294 295 297 298 297 295 291 287 290 289 291 291 292 294 297 298 299 300 300 301 303 304 305 306 307 308 308 309 309
314 306 303 300 311 311 308 310 308 308 302 307 296 303 301 303 303 303 305 302 304 305 304 305 302 301 299 300 298 297 297 296 298 299 298 298 299 301 304 304 305 304 305 304 305 305 299 294 296 296 295 296 296 295 297 296 293 293 293 293 295 295 296 295 290 288 295 292 285 292 294 291 293 296 297 298 300 301 302 302 303 304 305 306 307 308 308 309
306 312 312 315 306 300 301 302 309 308 308 307 304 307 303 301 301 299 302 304 304 306 302 302 302 302 301 300 299 294 296 297 297 294 299 299 299 300 300 303 302 303 303 304 305 303 298 291 296 296 295 296 297 296 297 296 294 293 294 293 293 294 295 292 292 294 295 289 287 292 294 292 294 296 298 299 300 301 302 303 304 305 306 306 307 307 307 308
316 314 313 314 306 309 312 311 311 308 307 307 303 305 302 302 301 302 302 301 302 301 305 292 299 301 301 301 301 297 298 293 292 299 299 299 299 299 298 299 302 302 303 303 302 304 301 294 296 297 294 295 295 296 296 295 294 294 293 293 294 294 294 294 293 295 294 292 293 294 294 294 296 297 298 300 303 303 304 305 306 304 304 305 305 306 306 307
311 311 308 312 314 310 311 311 310 307 305 306 297 304 304 303 301 301 302 302 297 300 302 299 299 301 302 301 301 299 299 301 300 296 301 300 299 300 299 299 298 302 303 301 302 305 299 292 297 296 293 293 294 296 296 295 294 292 293 294 294 294 294 294 294 294 294 294 294 295 294 293 297 300 300 303 304 304 304 303 303 304 304 305 305 305 305 306
317 317 319 309 306 309 309 310 307 306 302 304 302 304 304 302 302 304 301 304 303 300 302 300 301 301 302 301 301 300 302 302 301 302 303 302 298 301 299 300 301 299 300 300 300 301 299 294 298 296 289 290 293 294 294 294 294 292 292 293 293 293 292 293 291 295 293 292 293 293 292 291 297 300 301 302 302 302 302 302 303 304 304 305 304 305 305 306
317 318 317 316 304 305 307 309 309 305 298 307 307 304 303 302 305 303 297 302 303 307 304 302 304 303 300 302 300 301 303 304 304 304 304 304 304 304 303 302 301 300 299 299 300 297 297 295 292 291 288 288 292 294 293 293 292 289 292 293 294 294 295 295 296 297 297 296 292 288 291 296 298 300 298 299 301 301 302 302 303 304 304 304 304 305 305 306
Wind_Speed
13 13 13 13 12 13 12 13 13 13 13 13 12 12 11 11 10 9 9 8 8 8 7 7 7 7 7 7 7 4 6 8 5 7 8 2 6 7 8 0 11 7 9 9 10 11 11 10 9 7 7 7 4 6 6 4 3 5 7 6 7 1 8 7 4 2 6 4 6 7 8 7 3 5 5 6 5 7 7 6 6 7 8 7 8 8 9 9
13 13 13 13 13 13 13 13 13 13 13 13 13 12 12 11 10 9 8 8 7 7 8 7 7 7 7 6 6 5 7 8 7 6 5 6 3 4 2 5 11 11 11 9 11 11 10 10 8 9 6 6 4 3 6 5 5 6 5 5 5 5 6 2 4 2 3 6 7 6 8 7 4 2 5 5 8 9 8 7 9 7 8 8 8 8 8 8
14 14 13 13 14 13 13 14 13 13 13 13 13 12 12 11 10 9 8 8 8 7 7 7 7 6 6 6 3 1 6 6 8 4 6 5 6 6 3 6 11 9 9 8 8 8 9 9 8 9 6 4 6 4 8 6 7 5 5 6 4 4 3 1 0 2 3 5 5 7 6 6 4 3 2 2 7 7 7 8 9 8 9 8 8 8 8 7
15 14 14 14 14 14 14 14 14 14 14 14 13 13 12 11 10 9 8 8 8 7 7 7 7 6 5 6 1 6 7 8 3 6 7 5 6 6 5 8 8 10 6 4 5 6 4 6 7 8 5 6 6 3 8 6 8 6 6 5 3 5 3 4 1 1 3 4 6 5 5 3 2 3 4 2 7 5 6 7 7 8 10 11 10 9 7 7
15 15 15 15 15 14 14 15 15 15 15 14 14 13 12 10 9 9 9 8 8 7 7 7 7 6 6 3 4 6 6 5 7 5 7 5 6 7 6 7 8 7 5 6 7 6 8 8 8 6 6 5 4 6 8 7 6 1 7 4 3 2 4 1 2 1 4 4 6 4 5 4 2 3 5 5 4 4 4 5 3 1 12 12 12 10 8 7
15 15 15 15 15 15 15 15 15 15 14 14 13 12 11 10 10 9 9 8 8 7 7 6 6 6 3 3 5 5 5 3 2 4 5 4 7 7 6 7 8 6 8 10 8 9 9 9 9 7 7 5 7 7 7 4 7 6 7 7 5 3 6 1 3 2 3 4 4 6 4 2 4 2 3 5 3 6 5 5 4 4 9 11 10 9 8 7
15 15 16 16 15 15 15 15 15 15 15 14 13 12 11 11 10 9 9 9 7 7 7 6 5 5 3 4 7 5 2 9 2 7 6 6 8 8 6 6 9 7 8 8 8 8 8 9 9 7 6 4 6 5 6 6 6 8 2 3 4 4 6 4 6 1 5 6 6 6 5 6 3 6 3 5 2 5 5 3 4 7 9 10 10 7 7 7
16 16 16 16 16 16 16 16 15 15 14 13 13 13 12 11 10 10 9 8 8 7 6 6 5 7 5 7 6 4 6 7 9 5 4 7 11 9 8 8 7 7 8 7 7 7 7 7 6 5 6 3 6 6 6 7 7 8 7 4 4 4 4 6 6 5 5 7 7 6 7 6 5 4 1 6 5 4 4 3 5 7 8 8 8 8 7 7
16 16 16 16 16 16 16 16 15 15 14 13 13 13 11 11 11 10 10 8 7 7 5 6 6 4 2 6 7 2 8 7 8 4 5 10 13 11 11 7 6 7 5 4 0 3 4 5 2 4 1 6 4 5 5 7 8 9 7 5 5 6 5 5 7 7 7 4 5 8 8 6 3 3 9 6 6 5 3 4 6 7 8 8 8 8 7 7
17 17 17 17 17 16 16 16 16 15 14 14 13 12 12 11 11 10 10 9 7 6 5 4 6 6 6 5 8 1 6 6 2 2 3 8 11 10 9 4 7 6 6 4 3 2 3 5 5 2 2 3 3 1 3 9 6 1 2 5 7 6 7 5 8 3 2 5 5 8 6 5 3 6 5 9 6 7 6 5 6 8 8 8 7 7 6 6
18 18 18 18 17 17 17 17 16 15 14 13 13 12 12 12 11 10 9 8 6 5 5 7 2 4 7 7 4 8 4 4 4 3 5 7 9 9 5 5 5 5 3 4 2 2 4 3 2 2 4 5 5 5 6 1 5 3 4 6 8 8 7 7 7 6 6 7 8 8 3 1 5 7 5 8 8 9 9 7 8 9 9 8 8 7 6 5
17 18 18 18 18 18 17 17 16 15 14 13 13 12 12 11 10 9 8 7 5 4 4 6 7 5 8 6 10 7 5 4 2 4 6 6 5 3 3 2 2 0 2 2 2 1 2 4 4 4 3 3 2 3 3 2 4 3 5 8 3 5 8 5 4 2 7 4 7 7 6 7 8 9 7 6 7 9 9 8 9 10 9 9 8 6 5 5
18 18 18 18 18 17 17 17 16 15 14 13 12 12 11 11 10 8 7 6 1 4 6 5 6 4 6 6 8 6 3 2 4 4 5 2 4 4 2 1 1 2 3 3 3 0 1 3 5 4 3 5 1 4 4 4 3 4 6 6 6 7 8 6 3 2 7 5 7 7 9 9 11 10 7 7 7 9 10 10 10 10 9 9 8 6 6 6
18 18 18 18 18 18 17 17 16 15 14 12 12 11 10 9 8 6 3 3 2 3 5 7 6 5 5 11 4 4 2 3 5 5 4 3 5 5 3 2 2 2 1 2 2 2 2 2 4 4 2 5 2 2 6 6 5 6 2 4 6 4 7 8 1 3 6 5 6 6 9 6 10 11 9 8 8 10 11 11 11 11 11 10 8 7 6 7
18 18 18 18 18 18 18 17 16 15 14 13 12 9 8 8 5 4 2 4 3 5 6 6 6 5 5 7 4 3 1 3 5 5 4 5 5 6 5 4 4 2 0 2 1 1 1 3 6 6 2 2 4 6 6 4 4 4 7 9 6 8 7 7 3 2 5 7 6 6 8 10 2 6 10 8 9 10 10 10 11 11 11 10 9 8 7 6
18 18 18 18 18 18 18 17 16 13 12 12 10 7 4 6 6 2 2 2 5 6 5 5 5 5 3 8 5 5 5 3 7 2 4 3 3 3 4 5 3 3 4 3 2 1 3 4 5 4 3 7 7 4 5 5 7 5 7 1 3 5 0 5 7 5 3 5 6 9 8 5 9 3 4 7 9 9 10 10 11 13 13 11 9 8 7 8
18 18 18 18 17 18 18 17 15 13 12 10 8 2 1 3 6 7 6 7 5 4 4 3 2 4 4 4 4 5 7 6 1 5 5 3 4 2 4 5 4 3 3 3 3 4 3 6 3 5 4 4 3 5 6 5 5 5 4 7 1 6 2 5 9 4 4 4 4 6 8 9 8 2 6 6 7 10 10 11 11 11 10 10 9 9 8 8
19 18 18 18 17 17 17 16 15 13 11 9 5 2 4 3 9 10 5 7 2 2 4 3 3 3 12 6 1 8 2 4 2 3 2 2 2 3 3 2 3 3 6 6 6 6 3 4 4 2 3 2 4 4 5 5 4 3 2 6 7 8 7 6 2 9 4 4 6 4 8 9 9 10 5 5 6 8 10 11 11 11 11 11 10 10 10 9
19 19 18 17 17 16 16 15 13 11 9 8 3 5 5 5 5 6 4 4 4 4 3 5 3 4 10 8 2 1 2 2 1 5 5 5 4 4 3 3 4 7 6 7 6 6 5 4 6 4 2 3 3 4 5 6 4 8 7 5 5 4 7 8 2 3 4 6 8 8 8 8 9 9 6 5 6 9 10 11 10 11 11 11 10 10 9 8
19 18 18 18 17 16 14 13 12 8 9 5 5 4 4 3 5 3 3 6 11 7 6 4 3 2 4 6 6 3 1 3 5 3 3 1 4 5 4 3 4 5 5 0 4 1 3 5 2 4 5 6 6 5 6 5 5 5 6 7 8 7 6 4 5 2 1 6 10 10 8 9 8 6 2 3 6 8 10 11 11 11 11 11 11 10 8 7
18 19 19 18 17 15 14 12 9 7 4 6 5 4 2 6 1 8 6 9 5 5 5 6 5 6 8 5 6 4 4 7 2 5 3 2 6 6 3 5 6 5 4 2 3 2 7 3 4 6 6 6 7 4 3 4 5 6 6 6 8 8 8 3 2 5 2 6 4 3 6 7 8 6 2 2 6 8 8 9 11 11 10 9 10 9 8 7
18 18 19 18 18 16 14 12 9 6 6 5 3 5 5 7 5 4 5 7 7 5 2 4 3 4 3 2 3 3 9 6 8 6 4 5 1 9 6 4 3 4 1 3 5 5 4 4 6 6 5 3 3 2 2 5 5 6 6 6 6 7 6 3 1 3 3 5 6 3 6 7 6 3 2 4 5 4 4 6 8 10 10 8 8 8 8 9
18 18 18 18 16 15 14 12 9 4 4 0 5 5 6 6 3 3 4 2 9 5 7 10 8 10 7 4 6 8 2 8 6 8 7 7 3 5 3 2 2 1 3 3 4 3 4 5 7 5 3 3 2 2 1 3 5 6 6 6 8 4 2 6 7 6 4 5 4 1 6 7 4 3 3 2 3 3 2 3 4 5 8 9 8 8 8 10
17 17 17 17 17 15 14 12 12 5 2 5 7 8 4 4 4 3 5 2 7 9 8 7 5 9 9 6 5 8 9 7 4 7 7 7 3 3 4 4 2 3 3 3 4 5 7 7 5 3 2 4 4 3 7 5 4 2 6 6 5 3 3 7 3 4 3 6 5 6 7 9 5 6 7 5 2 1 1 0 1 3 4 3 2 3 4 7
17 17 17 16 16 15 13 13 2 3 1 3 6 5 4 4 3 3 5 4 3 9 2 3 4 7 7 4 4 4 9 10 10 7 6 8 5 6 5 1 6 2 4 3 4 4 5 7 4 3 3 3 6 4 8 8 7 0 6 7 8 7 7 6 4 6 8 8 6 5 8 9 6 4 1 2 2 7 7 6 6 4 2 2 5 5 4 5
16 16 16 15 15 15 14 3 3 1 4 4 4 6 5 3 2 3 5 1 8 5 5 6 5 5 4 3 5 1 5 7 5 6 5 7 4 5 3 2 5 6 4 2 4 5 5 4 4 5 6 6 6 3 9 11 5 9 5 7 7 8 7 6 8 6 8 9 6 3 8 5 7 7 2 2 5 11 11 13 13 10 7 3 2 3 5 7
16 15 16 14 13 14 4 2 2 3 4 4 3 5 5 2 2 3 4 4 4 5 6 6 5 7 5 6 4 2 8 8 3 9 7 8 4 2 7 4 5 4 0 4 5 3 2 6 6 5 5 6 6 5 8 11 7 4 6 9 9 7 7 8 8 8 8 6 2 6 7 9 8 3 4 2 9 8 12 14 15 14 13 13 9 5 6 7
16 15 14 13 12 9 3 2 3 1 5 4 4 5 4 1 3 2 5 1 3 5 4 5 5 3 4 5 6 4 8 3 6 9 6 7 6 3 4 5 6 5 2 5 7 6 6 7 9 9 7 5 5 6 7 9 9 7 9 10 9 7 7 8 8 8 8 6 7 7 6 9 8 5 6 6 6 11 14 14 15 15 15 14 13 11 8 7
14 14 13 11 11 7 6 2 3 3 3 2 4 4 0 3 4 4 3 2 2 2 3 2 1 3 4 1 8 7 6 8 6 6 4 3 8 7 1 5 3 3 6 7 4 5 6 7 7 8 7 6 8 7 6 8 8 6 12 11 7 8 8 7 8 7 6 6 8 6 5 7 4 7 4 7 8 12 12 13 14 15 16 15 14 13 11 7
14 13 12 9 7 4 3 2 1 4 1 2 4 2 3 4 5 5 2 3 2 3 3 4 4 5 5 1 7 6 6 7 5 1 6 5 6 5 7 3 3 2 5 7 7 5 4 4 5 8 8 7 9 6 5 5 6 9 11 13 10 7 8 8 6 6 5 8 7 2 4 6 7 6 7 7 8 9 10 9 12 14 14 15 15 15 13 11
14 12 10 6 3 3 3 2 5 3 1 3 4 3 4 5 4 2 2 4 3 4 4 3 5 3 2 2 3 4 7 5 6 6 4 3 7 7 2 7 2 6 2 0 7 5 5 4 1 6 7 8 8 10 4 3 5 8 7 7 6 6 11 12 6 8 9 6 8 3 3 3 11 4 5 7 8 9 10 12 14 15 15 14 14 15 15 13
14 11 8 5 3 3 3 4 3 0 2 3 2 4 4 3 3 2 2 3 7 4 4 3 3 3 3 5 5 5 3 4 7 8 6 6 7 7 9 7 8 6 1 6 5 3 3 4 4 4 2 13 10 10 2 4 4 6 6 4 6 3 0 3 1 6 8 5 5 4 6 5 4 5 7 8 9 10 10 10 12 13 14 13 14 15 14 14
13 11 4 6 2 3 2 3 2 2 3 4 4 4 5 2 1 1 2 1 2 4 4 3 5 3 1 3 6 4 4 5 3 3 2 3 2 9 10 9 7 5 6 5 4 6 4 5 7 10 3 11 10 9 8 5 6 5 4 3 2 2 3 4 4 2 4 2 2 2 4 1 7 6 6 7 9 11 11 12 12 12 13 12 13 13 13 13
12 6 3 3 4 2 3 3 2 3 3 4 5 4 2 2 2 3 0 2 5 2 1 2 1 4 6 4 5 6 1 6 4 4 2 3 4 4 5 10 12 6 5 1 5 5 5 4 7 11 6 10 7 7 8 8 8 5 4 5 4 4 4 3 2 3 1 4 5 5 5 4 8 4 7 8 8 11 11 12 11 12 12 12 11 12 13 13
11 5 2 3 3 3 2 2 1 3 4 5 5 4 2 1 1 3 3 3 3 1 2 1 3 3 5 4 2 4 5 1 4 4 5 4 4 4 5 7 9 10 6 7 6 6 5 4 7 6 6 8 7 6 6 8 6 1 4 4 4 3 2 5 3 6 5 1 4 6 1 3 4 5 9 9 9 11 13 15 15 15 14 13 11 12 13 12
5 2 4 1 1 2 1 1 2 3 5 5 4 2 0 3 2 1 3 4 2 2 2 4 1 4 1 3 3 1 4 6 4 3 5 5 5 4 4 5 6 9 8 4 4 5 6 3 7 4 1 7 6 6 8 8 4 5 5 3 6 1 5 4 3 2 2 4 0 3 5 6 7 4 12 13 13 15 17 17 16 16 16 15 13 13 13 13
1 3 1 3 2 4 1 3 2 4 4 5 3 2 3 3 6 3 4 4 4 4 3 5 4 5 1 2 1 2 3 3 2 4 1 2 4 5 4 5 7 5 8 8 2 3 5 5 6 7 6 5 3 5 6 9 7 5 2 6 6 4 7 4 3 1 3 3 1 2 2 4 4 2 9 14 15 16 16 16 15 15 15 15 14 14 14 14
1 1 0 5 7 4 1 2 4 5 4 2 4 5 0 2 3 4 2 1 2 2 4 3 3 4 1 3 1 4 4 7 4 3 2 2 3 4 1 3 5 6 5 5 6 4 5 3 7 6 2 5 2 2 3 5 8 7 6 2 6 1 3 3 2 3 2 1 0 4 4 7 5 5 10 12 12 14 15 14 15 16 16 15 14 15 15 14
2 4 1 7 6 3 1 2 4 4 3 5 6 4 3 6 4 3 4 3 1 3 3 3 4 3 3 1 4 0 5 4 3 2 4 3 2 4 4 6 4 5 4 6 5 3 2 4 5 4 5 3 4 6 4 6 3 4 5 1 3 4 3 3 2 3 5 2 1 2 3 2 6 5 8 10 10 10 9 11 12 13 13 13 13 13 14 13
2 3 4 6 6 4 0 3 3 2 3 3 3 5 4 6 5 4 2 4 3 4 3 1 1 1 1 3 5 3 4 4 4 3 4 3 2 3 2 1 5 6 4 4 1 3 2 2 3 6 3 7 2 7 7 7 8 6 5 5 5 4 2 4 1 3 4 4 3 3 1 4 5 5 7 9 10 10 11 11 10 9 11 11 12 12 12 12
2 2 3 5 8 5 5 2 4 4 6 5 6 7 3 5 5 6 4 2 2 4 4 2 1 1 2 2 4 2 1 1 1 1 3 3 4 1 4 6 5 6 4 6 2 4 1 1 2 1 2 5 5 5 8 8 8 7 6 6 6 7 2 3 2 1 2 3 2 3 2 6 5 3 6 8 8 9 9 10 10 10 10 10 10 11 11 11
4 2 4 8 8 6 5 5 4 1 4 5 5 2 6 3 6 5 6 4 4 4 2 3 6 3 2 3 4 1 3 1 2 1 2 4 5 4 4 3 5 5 6 4 5 5 5 3 3 2 4 4 4 3 4 5 5 6 7 6 6 3 5 2 4 3 3 2 3 2 3 3 2 3 5 7 8 8 9 9 9 8 9 9 9 10 10 11
1 4 2 5 6 6 3 7 4 3 6 6 6 8 4 3 3 2 1 1 2 1 3 4 4 0 4 3 2 1 2 1 3 3 2 2 3 5 5 6 5 4 7 4 6 4 2 4 3 2 1 4 5 4 3 0 2 1 3 6 5 5 5 5 4 4 3 1 2 1 0 3 2 4 5 6 7 8 8 9 9 8 8 9 10 10 10 10
2 2 3 3 2 4 4 1 3 4 6 6 4 7 5 5 3 4 3 5 4 2 2 3 4 5 4 2 1 1 2 1 1 2 3 1 2 4 4 5 7 3 6 5 5 4 3 4 5 2 4 6 5 3 3 5 1 5 4 6 5 3 2 3 4 2 2 4 5 4 3 1 4 2 5 7 8 9 10 10 9 8 8 9 10 10 9 9
2 2 1 4 4 2 2 3 5 6 7 7 7 7 6 4 5 6 3 5 3 3 1 3 3 1 2 0 1 1 2 4 2 2 3 1 3 3 3 4 5 4 5 5 6 4 3 3 5 4 5 4 4 3 2 2 6 2 4 5 4 5 3 2 2 2 1 1 3 3 3 4 2 4 7 9 10 10 9 9 9 8 9 10 10 10 9 9
3 1 2 3 2 4 4 2 1 6 7 7 4 4 2 6 4 4 3 7 5 5 5 4 2 0 2 3 1 1 3 2 2 2 2 3 3 3 3 2 3 4 4 3 4 3 1 1 4 5 5 4 5 4 4 4 4 3 4 3 5 4 5 6 5 2 2 3 1 4 3 5 5 7 9 10 10 10 10 10 10 10 10 10 10 10 9 8
1 1 0 1 4 3 4 3 4 5 5 4 3 4 5 4 5 5 2 1 2 2 3 3 0 3 1 2 1 2 1 3 3 1 2 2 3 3 3 1 3 6 6 3 2 3 2 1 3 4 4 4 3 2 1 2 3 1 2 3 3 4 5 5 3 4 5 4 2 2 4 5 6 8 9 10 10 9 8 9 9 9 9 10 10 10 11 10
2 2 1 4 3 3 4 3 3 4 5 2 3 1 4 6 4 2 4 4 5 2 1 3 2 2 2 0 3 1 3 2 1 2 3 2 3 5 5 5 2 3 6 2 2 4 5 1 1 3 2 2 1 1 0 1 1 1 1 2 3 3 4 4 4 5 7 3 4 4 4 5 5 7 8 8 9 9 8 8 8 8 9 10 11 11 11 11
3 3 3 2 2 4 4 5 3 5 5 1 4 3 5 5 4 2 1 5 3 3 3 2 4 3 3 1 3 2 4 3 2 2 1 2 1 1 2 4 3 2 1 2 3 2 4 1 2 2 1 1 0 2 2 3 4 4 2 0 2 3 3 3 3 3 5 4 3 4 4 4 5 7 7 8 7 7 7 6 7 9 10 11 12 11 11 11
3 2 3 1 3 4 3 3 5 6 4 2 1 3 3 5 4 4 2 2 1 2 3 5 6 5 2 0 1 0 1 3 2 3 3 2 4 3 1 4 3 3 3 3 2 3 6 2 2 3 5 2 1 2 3 3 3 2 2 1 1 2 2 2 2 1 2 1 2 3 3 1 5 6 8 8 7 7 7 8 8 9 10 11 12 12 12 12
2 2 3 3 5 4 4 4 5 5 3 4 3 5 3 4 4 4 4 2 1 4 5 7 6 5 2 1 1 1 1 2 2 0 1 3 2 3 4 3 2 1 1 1 1 1 5 1 3 4 4 2 2 4 3 2 1 2 2 2 1 1 2 0 2 1 4 3 4 4 4 3 6 8 8 7 8 8 9 9 9 8 10 11 11 12 12 13
1 1 2 4 2 1 3 3 2 3 3 2 2 6 3 6 5 6 3 2 2 2 3 7 5 3 4 2 2 3 2 2 3 2 2 2 2 1 1 2 2 4 2 2 2 3 4 2 2 1 4 0 2 3 5 5 7 8 8 5 2 1 2 2 3 3 3 3 4 2 4 6 8 8 8 8 9 9 9 9 8 9 10 11 11 12 12 12
Wind_Direction
342 338 337 335 333 333 332 329 329 329 328 328 330 331 331 332 333 334 329 324 321 321 323 321 313 310 303 305 307 9 333 275 274 248 229 311 46 113 185 340 162 174 181 189 152 167 168 167 170 170 192 198 144 214 117 206 183 201 212 229 209 236 199 139 180 146 53 328 14 358 358 344 78 133 115 168 146 123 139 133 121 88 76 82 101 104 105 116
339 337 335 334 333 333 331 331 328 328 329 328 331 332 332 332 335 333 328 326 325 321 320 321 313 304 306 304 305 39 294 278 259 248 257 78 124 162 241 164 160 182 211 181 173 179 169 173 166 185 191 197 133 185 174 154 216 218 221 238 223 193 75 60 54 43 316 10 343 346 8 345 32 314 128 224 133 145 149 142 160 126 107 112 112 109 120 126
338 336 336 334 333 333 333 330 329 329 329 330 330 331 332 332 331 330 330 323 323 325 314 317 311 305 289 300 73 210 295 255 241 125 80 74 132 192 189 163 174 187 221 179 188 187 188 172 169 192 196 201 182 164 206 146 209 221 253 208 243 62 59 216 91 309 319 339 326 347 3 337 34 320 88 231 134 163 162 154 176 172 148 139 128 131 128 136
338 337 335 335 334 334 334 330 328 330 330 329 329 330 327 327 326 326 324 324 318 320 319 310 307 300 296 275 176 291 261 271 114 72 75 105 165 190 192 178 182 206 221 187 181 194 188 163 177 205 172 229 150 239 189 139 226 137 239 242 71 72 226 144 237 322 328 319 321 330 342 297 100 330 254 124 153 169 133 151 176 178 158 144 141 136 133 130
336 337 335 334 334 335 333 330 329 329 328 327 326 325 325 322 321 324 321 319 322 315 316 312 299 302 292 280 222 250 276 240 80 85 66 128 164 196 195 188 204 204 186 147 170 174 180 171 176 202 199 191 164 185 217 158 247 77 232 286 325 155 247 115 245 311 313 328 300 302 302 45 52 241 233 224 198 130 78 119 103 277 148 146 147 145 144 141
337 335 336 335 333 334 333 329 329 328 327 326 325 323 320 320 321 322 322 318 317 315 314 309 301 283 283 196 257 248 262 88 73 77 35 183 166 193 192 195 214 238 159 160 159 159 166 166 175 180 198 199 184 206 163 190 179 232 190 242 236 266 277 17 262 276 280 279 281 297 0 311 248 210 234 262 303 82 18 26 63 63 114 127 133 143 146 141
337 336 336 334 332 332 330 329 328 327 327 326 323 322 321 320 321 318 318 316 309 313 308 304 287 278 208 234 245 251 281 83 33 46 65 145 174 179 177 195 219 185 159 145 149 157 163 160 199 173 194 207 168 225 143 181 195 258 285 129 224 238 245 259 270 239 257 267 277 294 302 261 217 232 164 238 228 68 43 36 95 105 115 130 135 145 140 132
337 337 334 333 333 332 330 329 329 327 324 323 321 318 319 319 318 317 313 311 310 309 303 287 277 264 282 245 246 181 61 49 19 45 89 154 167 174 180 182 196 154 163 149 153 142 162 165 186 161 214 224 136 210 138 204 198 228 238 219 261 269 265 258 263 262 265 260 268 264 259 240 228 289 241 228 215 141 72 111 126 129 137 144 141 135 129 123
337 335 333 333 333 332 331 330 327 326 323 320 318 315 317 319 315 314 309 310 310 304 301 279 261 263 236 276 268 266 52 20 359 355 126 157 165 165 182 160 196 169 148 146 247 113 246 98 160 236 141 191 150 208 171 229 197 216 256 274 273 255 257 261 266 259 247 252 247 242 237 231 233 314 256 239 195 148 126 155 157 149 152 154 146 136 140 134
338 336 334 334 333 333 331 330 327 324 321 318 314 314 316 314 312 311 310 310 316 306 286 282 254 213 238 259 264 54 52 2 24 66 148 157 155 166 201 161 182 151 160 154 159 196 0 87 351 154 315 66 187 154 162 236 38 336 280 270 276 285 280 270 268 269 184 240 216 231 217 212 169 223 204 192 165 166 170 173 174 179 171 162 155 139 131 128
338 336 335 333 333 331 330 328 325 322 319 316 314 313 312 311 308 305 307 310 305 304 283 253 95 236 264 262 338 71 30 315 48 87 128 152 153 176 167 170 176 172 154 152 173 25 54 39 24 107 230 63 189 140 232 32 346 275 308 289 257 250 253 254 253 242 218 208 207 224 201 154 176 216 275 134 158 183 194 187 189 198 180 171 156 145 128 125
336 335 333 332 331 330 329 326 324 322 319 316 313 311 309 305 303 305 303 306 293 270 240 228 214 255 280 289 55 43 356 23 102 107 132 147 159 14 61 157 215 203 214 159 146 168 353 15 298 300 25 200 185 151 158 3 258 301 288 266 244 235 241 196 256 168 210 159 188 197 177 184 176 222 198 145 159 183 202 201 197 200 188 174 161 145 144 134
336 335 332 332 330 330 328 326 323 321 319 315 311 307 305 302 302 304 301 274 220 248 210 198 219 254 286 89 41 38 356 84 106 125 137 174 123 105 93 99 331 319 315 330 46 152 279 306 319 305 58 284 4 329 64 256 262 262 233 287 257 211 214 132 164 175 220 102 187 187 231 200 190 210 154 156 169 183 201 209 201 197 189 180 169 162 145 137
335 334 331 331 330 328 327 325 323 322 319 313 308 304 302 301 300 300 270 268 207 191 178 197 247 256 275 75 81 28 73 130 136 156 146 156 173 120 140 178 236 257 241 308 30 11 256 294 284 312 289 276 52 126 234 207 213 242 89 255 265 223 181 123 151 141 211 111 187 219 254 242 167 193 156 159 184 191 204 208 205 199 192 183 174 173 159 156
335 333 331 331 329 328 327 326 325 324 321 314 306 301 291 286 292 281 219 169 190 157 174 208 236 259 131 79 117 82 117 192 161 126 149 170 156 153 177 171 199 194 278 272 316 266 256 247 260 240 169 150 238 247 234 230 200 240 233 209 201 243 131 123 123 181 253 128 189 220 244 261 212 145 148 166 191 206 220 208 206 203 193 181 173 171 164 155
335 333 332 330 330 328 328 328 327 324 324 321 312 296 270 243 245 211 179 116 134 165 189 234 200 268 38 93 78 143 208 151 82 131 148 266 224 95 128 173 157 181 216 198 244 203 229 266 280 7 275 191 225 264 285 251 204 200 249 294 211 206 190 165 124 127 50 128 157 235 261 231 240 110 149 175 195 210 226 219 209 207 197 182 178 173 170 152
334 333 331 330 330 329 329 330 331 332 336 330 308 201 173 139 156 135 128 152 170 211 250 325 312 269 65 65 161 164 84 68 147 154 193 226 289 122 173 167 182 161 171 162 192 200 185 238 138 223 220 307 5 280 273 247 243 220 194 253 236 247 171 210 117 137 144 275 177 188 247 252 282 186 151 174 207 210 222 226 215 212 200 188 182 178 175 170
334 332 331 330 329 329 329 330 333 337 336 331 333 103 155 158 140 146 154 217 184 228 261 274 307 258 105 183 78 67 333 106 132 112 187 165 256 218 258 218 154 187 171 158 164 219 171 220 218 295 205 199 222 276 263 278 330 336 219 230 214 221 245 321 256 107 232 205 269 220 239 261 248 254 195 183 205 227 227 225 221 210 203 192 189 187 183 180
333 331 330 330 329 329 330 328 333 338 336 318 73 61 94 172 207 258 253 186 215 166 180 61 344 66 62 50 56 277 75 34 101 225 149 193 189 237 204 228 236 206 194 215 108 244 173 211 204 229 343 357 348 305 295 323 323 262 261 274 314 255 187 216 200 87 289 262 243 234 247 232 230 225 200 158 198 222 231 227 224 213 203 200 198 195 190 186
332 330 329 329 328 328 327 326 331 332 324 252 189 183 207 185 176 127 137 59 45 35 27 13 17 108 143 54 43 41 56 174 202 140 123 212 208 195 200 229 177 221 236 205 128 218 308 247 28 31 16 12 352 300 292 290 274 260 241 243 233 243 261 244 243 67 218 268 245 254 245 258 268 262 229 186 196 217 225 222 214 211 206 203 202 197 184 176
331 330 329 328 328 326 324 323 326 321 289 270 271 263 33 5 25 92 61 70 63 34 28 51 23 29 36 352 21 343 183 119 39 93 38 20 276 277 138 244 206 181 47 44 314 87 254 237 68 26 7 359 360 324 261 249 229 238 232 231 222 218 243 195 297 122 177 253 228 179 255 246 244 240 238 221 220 227 222 221 221 224 216 206 203 195 181 169
330 329 328 327 326 324 321 321 323 307 270 263 288 63 74 42 353 19 289 104 70 47 75 54 237 101 98 356 13 327 279 148 104 69 104 285 222 267 94 292 4 46 108 197 196 211 214 44 38 15 7 0 357 28 252 244 231 223 248 209 245 230 228 265 162 151 165 235 238 140 248 244 229 246 156 242 246 246 248 236 227 219 210 207 198 193 184 177
329 328 328 325 325 321 320 315 314 310 259 218 47 54 44 353 342 317 269 325 75 44 51 37 50 47 67 84 32 300 116 48 56 54 18 320 228 20 348 287 62 43 195 314 299 229 228 58 27 359 345 285 117 55 188 231 234 243 218 224 229 74 266 203 145 160 163 251 294 248 258 245 220 222 235 249 254 241 200 236 217 222 229 215 210 203 197 191
329 328 327 326 323 321 315 315 297 259 30 27 55 41 4 340 303 213 254 60 89 66 36 40 9 30 37 1 20 346 71 66 357 40 22 325 1 7 266 11 274 249 50 8 342 356 34 26 11 336 303 300 312 26 348 298 266 112 312 308 300 356 228 286 133 185 194 202 251 255 240 241 214 185 159 124 110 323 63 73 322 241 247 289 318 242 216 219
327 329 327 324 322 318 313 313 276 28 310 246 64 34 3 327 283 234 282 157 159 76 88 123 355 52 3 237 271 265 95 80 45 30 11 347 351 261 43 335 285 81 23 31 253 198 79 24 320 294 324 324 322 328 6 331 286 10 71 8 345 327 311 275 292 255 230 221 182 259 255 238 190 212 85 104 132 60 44 32 31 34 14 242 232 236 238 231
326 326 327 323 321 320 306 286 68 328 257 45 20 5 348 324 245 241 261 199 88 25 322 81 307 53 309 33 334 68 231 78 33 33 6 6 289 323 244 179 338 19 21 281 337 32 25 40 356 336 325 317 322 335 19 336 293 268 56 2 344 319 293 285 261 245 250 254 154 254 265 254 173 226 125 40 63 64 57 49 40 26 14 340 291 260 235 227
327 325 326 323 322 324 275 56 29 252 227 98 35 344 337 295 208 185 251 140 78 20 342 31 285 73 308 25 321 239 229 72 134 40 21 20 330 74 285 40 193 109 62 323 230 106 352 34 3 350 332 314 325 319 12 337 325 296 25 349 320 311 298 290 290 267 274 290 243 237 256 265 243 156 62 72 88 57 43 42 31 26 18 14 354 302 257 242
324 323 321 320 322 321 4 319 259 305 39 34 348 338 324 138 191 234 259 218 52 301 347 7 19 325 309 29 45 48 45 332 229 38 10 7 299 186 337 37 15 25 11 267 289 78 360 45 19 4 348 12 12 2 349 336 310 357 348 329 303 300 311 294 270 269 272 288 262 251 230 256 253 150 84 13 74 28 32 30 26 23 19 17 11 358 323 263
320 319 317 316 314 300 287 301 308 42 61 37 341 332 65 163 224 267 284 87 71 317 126 112 68 220 3 203 64 62 62 21 26 28 20 167 45 327 309 61 62 47 29 351 335 110 71 18 33 18 10 9 352 336 355 335 307 352 324 302 279 271 275 269 254 261 266 243 260 258 219 262 228 49 62 60 35 21 13 24 25 21 20 18 12 7 2 322
321 317 316 316 293 220 201 218 214 67 83 357 339 316 184 210 233 232 226 77 326 113 353 347 302 2 296 205 78 46 71 62 45 35 55 33 58 115 77 314 272 201 85 68 65 56 79 96 44 42 17 355 332 326 323 318 297 300 296 292 280 278 251 233 243 247 239 246 252 30 317 279 263 63 30 27 23 15 4 22 22 21 22 23 17 13 14 11
319 315 307 298 276 17 294 206 90 104 30 336 314 218 233 224 274 300 108 68 246 64 226 54 52 272 53 356 75 80 77 38 38 341 68 23 55 30 23 185 280 237 246 258 105 106 134 136 189 65 14 352 327 311 228 298 299 300 277 273 308 284 336 276 271 217 234 223 104 58 16 216 261 108 64 43 52 29 16 18 18 17 21 22 23 18 16 22
317 310 293 244 345 302 301 31 36 3 333 322 250 214 235 239 164 330 99 101 253 63 357 43 54 24 70 87 61 34 15 104 40 37 32 34 48 36 37 24 350 319 217 24 354 186 219 71 52 92 66 11 340 320 323 282 305 318 304 251 247 269 60 269 58 252 216 229 90 42 16 221 91 46 27 45 31 26 23 18 15 15 19 22 27 28 27 18
317 310 289 238 247 228 285 4 316 307 297 240 220 221 241 251 202 113 132 209 93 335 111 302 29 5 24 242 62 39 35 14 16 64 312 58 13 86 66 38 12 11 336 18 309 343 80 90 36 1 228 11 337 340 347 320 349 323 336 1 255 251 196 245 245 266 293 169 162 62 59 342 100 95 25 37 39 29 21 17 16 16 17 19 25 27 31 34
318 287 216 176 229 312 332 301 286 278 241 202 232 210 277 263 90 14 185 22 74 116 65 325 342 65 21 29 46 335 139 67 360 44 307 23 19 19 45 44 11 8 351 318 4 347 343 224 64 2 6 353 354 0 347 325 312 349 343 305 343 318 318 279 277 233 209 51 119 138 206 170 202 84 27 18 28 28 23 21 16 18 18 15 18 23 26 29
322 267 211 145 235 225 269 275 196 233 238 221 212 241 216 127 143 145 146 121 130 150 95 206 244 269 116 114 67 66 341 87 33 10 24 351 48 39 20 19 25 351 3 297 49 287 351 306 49 36 336 346 6 0 354 328 303 318 329 280 251 10 4 302 353 305 1 355 173 163 157 106 113 121 29 15 7 10 7 15 11 13 13 13 20 20 16 19
268 166 209 167 200 66 285 206 173 221 231 214 219 210 211 32 127 199 63 349 102 272 148 229 265 244 99 150 136 19 122 299 83 263 83 54 53 55 30 32 17 13 1 3 20 344 321 45 48 8 24 19 28 344 25 337 328 26 281 356 19 263 279 290 227 334 288 245 205 93 158 128 122 153 16 12 6 10 6 5 7 8 7 5 9 10 11 9
172 163 177 30 54 360 339 211 209 217 219 239 210 142 50 97 17 58 49 356 27 327 231 265 99 319 5 73 304 48 68 250 132 295 131 194 131 48 49 74 1 22 29 346 356 67 320 342 69 356 4 64 348 338 351 19 329 285 353 29 322 313 302 289 309 122 245 271 116 231 178 114 254 170 8 13 6 7 1 358 359 4 4 4 5 1 358 0
268 164 73 28 2 346 213 222 237 225 226 159 73 72 237 101 63 19 43 250 209 203 276 282 91 298 143 285 84 0 18 276 69 254 51 319 52 340 18 4 67 16 353 19 304 48 322 269 106 49 322 38 282 272 295 57 27 24 32 39 301 15 213 139 281 280 315 19 138 139 92 68 18 31 13 17 5 2 354 351 355 1 2 1 358 358 354 354
234 260 138 17 2 356 306 224 237 234 155 116 125 137 41 66 63 52 49 26 356 314 276 45 335 80 317 294 347 241 357 336 9 18 286 75 269 62 35 323 35 18 354 329 317 9 230 303 114 79 348 24 45 358 30 11 81 97 217 94 32 272 359 312 18 331 292 306 265 138 180 82 49 24 356 10 5 3 355 353 358 359 359 1 357 357 354 355
244 233 78 16 3 323 182 234 214 170 139 107 105 67 119 97 77 69 72 308 34 312 56 92 41 121 96 44 332 353 38 331 342 51 298 60 344 117 41 46 353 346 2 326 3 316 351 308 334 68 155 225 14 15 31 9 7 15 8 21 11 346 29 324 270 310 339 333 345 340 199 100 59 9 6 10 5 3 358 353 354 0 357 2 0 358 356 357
266 269 85 4 350 318 275 232 84 80 89 79 76 111 121 97 124 89 82 360 98 16 11 74 21 41 32 228 151 17 294 360 295 50 2 120 335 133 91 359 336 331 304 225 321 24 280 283 10 352 35 30 53 42 22 12 2 12 360 19 350 336 343 296 140 188 307 306 349 300 35 96 75 11 15 7 3 4 5 357 351 358 2 9 2 0 1 359
252 198 81 0 337 311 264 92 73 15 122 118 94 86 108 321 111 100 100 104 54 99 60 82 59 58 83 31 2 25 312 11 27 283 57 344 81 330 60 332 321 323 304 38 3 46 342 314 301 10 24 36 97 114 51 3 8 22 14 12 344 323 305 300 322 48 285 48 308 322 306 86 51 12 5 10 3 1 6 359 357 3 3 5 5 4 6 6
289 57 80 343 343 320 83 89 99 99 79 85 122 93 99 100 66 82 130 65 120 17 89 48 36 17 71 351 2 353 326 64 345 22 38 19 31 21 8 330 326 303 271 92 201 94 251 301 268 141 95 132 158 181 193 49 247 256 46 7 345 351 352 335 345 350 309 43 247 215 21 87 54 0 19 4 7 2 6 8 4 7 7 2 360 2 4 8
46 80 128 76 336 300 263 118 124 104 107 111 102 91 53 67 37 109 73 55 6 100 54 96 125 32 64 344 345 347 352 264 98 291 159 6 67 34 15 334 310 20 344 50 337 67 263 74 303 278 195 175 177 210 239 224 281 30 353 352 342 317 286 329 307 294 271 47 335 314 41 85 77 346 12 2 2 13 7 10 11 5 5 357 355 356 356 358
127 131 84 50 22 304 300 56 138 131 133 138 135 132 133 94 36 20 32 71 41 54 202 78 32 64 99 139 78 61 55 330 145 76 349 340 56 56 62 31 327 61 42 31 325 297 273 7 329 349 356 347 357 360 26 24 13 340 13 344 7 339 306 256 266 177 268 97 339 343 54 65 67 16 10 13 3 6 13 10 12 15 8 2 357 353 355 355
197 197 120 111 35 92 68 342 97 142 137 139 132 108 137 120 129 64 57 84 52 78 45 112 129 248 130 203 159 72 97 67 327 125 214 129 125 113 49 71 34 58 64 37 319 276 358 81 359 356 347 359 12 5 70 318 311 337 35 358 13 354 325 282 288 290 25 62 68 77 339 331 359 13 9 11 5 359 1 8 8 11 8 6 6 2 3 358
328 296 81 153 129 73 111 150 135 163 145 166 147 160 156 128 124 130 331 177 108 98 94 7 140 224 164 226 140 134 108 128 105 120 68 76 98 90 113 55 111 56 333 286 3 280 250 301 43 348 353 359 355 266 360 293 349 3 282 32 11 359 341 347 356 15 351 294 140 57 5 323 11 8 1 360 357 350 360 1 357 360 4 2 2 7 10 7
250 89 327 16 299 136 163 147 156 103 93 235 86 208 150 152 175 155 130 75 129 159 209 146 152 52 56 132 182 174 162 131 180 112 147 111 168 163 171 171 200 35 301 23 315 294 308 347 97 278 77 325 326 356 205 117 72 160 351 339 19 1 16 15 2 342 329 338 8 31 356 337 12 1 355 353 351 342 347 352 350 351 352 358 354 358 5 10
345 80 59 337 262 58 20 74 148 144 135 168 117 205 161 189 165 98 16 142 203 146 264 140 153 116 94 101 281 143 181 169 147 128 249 136 28 243 173 166 168 289 184 90 52 15 279 58 98 276 270 13 314 202 188 171 159 167 154 355 5 5 21 12 17 346 347 27 3 356 338 352 20 359 348 347 339 334 340 329 339 351 354 354 349 351 355 358
146 200 134 197 65 95 100 142 164 176 160 156 205 153 198 193 162 155 157 226 169 130 199 155 130 124 109 112 322 301 142 341 6 163 149 238 177 254 7 357 20 100 33 51 322 88 288 85 172 197 255 62 44 148 189 173 190 148 152 211 216 296 324 336 324 343 271 206 350 327 301 12 57 360 342 340 329 329 332 339 342 344 344 348 347 349 350 350
15 349 335 189 149 112 137 158 180 197 165 184 223 137 200 180 160 153 107 25 307 151 176 138 128 126 143 129 101 49 7 299 229 21 116 244 329 47 313 96 311 345 114 120 7 336 286 95 194 228 266 161 168 197 172 187 235 291 202 181 214 256 241 230 272 319 295 338 319 287 247 10 0 347 332 329 336 339 336 341 338 340 342 341 344 346 346 346
256 143 223 291 180 180 192 141 165 184 203 116 37 143 201 170 146 152 119 117 63 76 117 133 156 180 127 204 69 17 340 252 252 283 238 230 272 227 298 13 317 333 335 55 336 317 351 285 238 260 262 6 128 229 208 234 268 251 224 170 223 143 290 303 271 256 259 264 265 311 8 356 337 330 328 338 338 338 334 337 332 335 338 336 339 343 341 343